Location: Passau
(48.5830°N, 13.4830°E)
Time: 21:44:44
(UTC+02:00)

S-56A Canister/Altair - Pass Details

Date: 26 May 2024
Orbit: 637 x 2489 km, 38.9° (Epoch: 16 June)

Event Time Altitude Azimuth Distance (km) Brightness Sun altitude
Rises 11:07:51 0° 274° (W) 5,169 11.5 54.3°
Reaches altitude 10° 11:12:15 10° 264° (W) 3,840 11.0 54.8°
Maximum altitude 11:19:43 27° 212° (SSW) 2,187 10.3 55.7°
Drops below altitude 10° 11:25:13 10° 157° (SSE) 2,748 11.1 56.4°
Sets 11:27:49 0° 144° (SE) 3,484 11.4 56.7°
